This is the latest recevied weather packets stored in our database for station/object DL5TW-13. If no packets are shown the sender has not sent any weather packets the latest 10 day(s).
| Time | Temp. | Humidity | Pressure | Rain* | Wind** | Luminosity | Snow |
|---|---|---|---|---|---|---|---|
| 1777645174 | 25° C | 28% | 1021.2 hPa | 0 mm | - | - | - |
| 1777644874 | 25° C | 29% | 1021.3 hPa | 0 mm | - | - | - |
| 1777644573 | 25° C | 29% | 1021.3 hPa | 0 mm | - | - | - |
| 1777644273 | 24.44° C | 30% | 1021.1 hPa | 0 mm | - | - | - |
| 1777643973 | 23.89° C | 29% | 1021.2 hPa | 0 mm | - | - | - |
| 1777643672 | 23.89° C | 29% | 1021.3 hPa | 0 mm | - | - | - |
| 1777643372 | 23.89° C | 29% | 1021.4 hPa | 0 mm | - | - | - |
| 1777643072 | 23.89° C | 30% | 1021.4 hPa | 0 mm | - | - | - |
| 1777642772 | 23.33° C | 30% | 1021.5 hPa | 0 mm | - | - | - |
| 1777642471 | 23.33° C | 30% | 1021.4 hPa | 0 mm | - | - | - |
| 1777642171 | 23.33° C | 30% | 1021.4 hPa | 0 mm | - | - | - |
| 1777641871 | 23.33° C | 30% | 1021.5 hPa | 0 mm | - | - | - |
| 1777641570 | 23.89° C | 30% | 1021.7 hPa | 0 mm | - | - | - |
| 1777641270 | 23.89° C | 30% | 1021.6 hPa | 0 mm | - | - | - |
| 1777640970 | 23.89° C | 30% | 1021.7 hPa | 0 mm | - | - | - |
| 1777640669 | 23.89° C | 30% | 1021.5 hPa | 0 mm | - | - | - |
| 1777640369 | 23.89° C | 29% | 1021.7 hPa | 0 mm | - | - | - |
| 1777640069 | 23.89° C | 29% | 1021.8 hPa | 0 mm | - | - | - |
| 1777639769 | 23.89° C | 29% | 1022 hPa | 0 mm | - | - | - |
| 1777639468 | 24.44° C | 30% | 1022.1 hPa | 0 mm | - | - | - |
| 1777639168 | 23.89° C | 30% | 1022 hPa | 0 mm | - | - | - |
| 1777638868 | 23.89° C | 31% | 1022.1 hPa | 0 mm | - | - | - |
| 1777638567 | 23.33° C | 31% | 1022.2 hPa | 0 mm | - | - | - |
| 1777638267 | 23.33° C | 31% | 1022.3 hPa | 0 mm | - | - | - |
| 1777637967 | 23.33° C | 31% | 1022.3 hPa | 0 mm | - | - | - |
* Rain latest hour (hover to see other rain measurements)
** Current wind speed in m/s (hover to see current wind gust speed)